Location: Austin
(30.3000°N, 97.7500°W)
Time: 05:43:22
(UTC-06:00)

SL-16 Debris - Pass Details

Date: 03 March 2026
Orbit: 364 x 10661 km, 28.4° (Epoch: 12 October)

Event Time Altitude Azimuth Distance (km) Brightness Sun altitude
Rises 19:57:49 0° 270° (W) 2,502 8.6 -19.4°
Reaches altitude 10° 20:00:02 10° 265° (W) 1,398 6.9 -19.9°
Enters shadow 20:02:16 47° 218° (SW) 490 3.5 -20.4°
